Regional Weather Roundup
Issued by NWS

Home | Current Version | Previous Version | Text Only | Print | Product List | Glossary On
Versions: 1 2 3 4 5 6 7 8 9 10 11 12 13 14 15 16 17 18 19 20 21 22 23 24 25 26 27 28 29 30 31 32 33 34 35 36 37 38 39 40 41 42 43 44 45 46 47 48 49 50
000
ASUS44 KJAN 171210
RWRMS

MISSISSIPPI HOURLY WEATHER ROUNDUP
NATIONAL WEATHER SERVICE JACKSON MS
600 AM CST SUN DEC 17 2017

NOTE: "FAIR: INDICATES FEW OR NO CLOUDS BELOW 12,000 FEET WITH NO
SIGNIFICANT WEATHER AND/OR OBSTRUCTIONS TO VISIBILITY.

MSZ001>002-007>008-010>013-018>021-025>028-034>036-171300-
NORTHWEST MISSISSIPPI

CITY           SKY/WX    TMP DP  RH WIND       PRES   REMARKS
BATESVILLE     LGT SNOW  40  38  92 E6        30.19F
CLARKSDALE     CLOUDY    43  43 100 E10       30.09F
CLEVELAND      LGT RAIN  42  42 100 E12       30.09F
GREENWOOD      LGT RAIN  42  41  96 NE10      30.16F FOG
6HR MIN TEMP:  42; 6HR MAX TEMP:  50; 6HR PCP:  0.77;

GREENVILLE     LGT RAIN  43  41  93 E10       30.07F
6HR MIN TEMP:  42; 6HR MAX TEMP:  49; 6HR PCP:  0.81;

TUNICA         LGT RAIN N/A N/A N/A E9        30.15F
WINONA         RAIN      42  42 100 N7        30.17F
$$

MSZ003>006-009-014>017-022>024-029>033-037>039-171300-
NORTHEAST MISSISSIPPI

CITY           SKY/WX    TMP DP  RH WIND       PRES   REMARKS
ABERDEEN       LGT RAIN  41  41 100 E8        30.15F
COLUMBUS AFB   LGT RAIN  43  41  93 CALM      30.18R
6HR MIN TEMP:  35; 6HR MAX TEMP:  47; 6HR PCP:  0.29;

CORINTH        LGT RAIN  41  37  87 SE3       30.17F
GOLDN TRIANGLE LGT RAIN  43  40  89 E6        30.17F
STARKVILLE     LGT RAIN  43  41  93 W3        30.19R
TUPELO         HVY RAIN  40  38  93 W8        30.22R FOG     WCI  34
6HR MIN TEMP:  40; 6HR MAX TEMP:  45; 6HR PCP:  0.42;

$$

MSZ040-058-171300-
CENTRAL MISSISSIPPI

CITY           SKY/WX    TMP DP  RH WIND       PRES   REMARKS
JACKSON INTL   LGT RAIN  53  50  89 N9        30.09F
6HR MIN TEMP:  53; 6HR MAX TEMP:  56; 6HR PCP:  0.49;

JACKSON HAWKNS LGT RAIN  48  48 100 NW8       30.12F
6HR MIN TEMP:  48; 6HR MAX TEMP:  55; 6HR PCP:  0.40;

MADISON        CLOUDY    45  45 100 N8        30.12F
MERIDIAN KEY   LGT RAIN  51  47  86 S6        30.12R
6HR MIN TEMP:  41; 6HR MAX TEMP:  55; 6HR PCP:  0.07;

MERIDIAN NAS   HVY RAIN  47  41  80 NE6       30.15R
6HR MIN TEMP:  40; 6HR MAX TEMP:  49; 6HR PCP:  0.04;

RAYMOND        DRIZZLE   48  46  93 N9G16     30.12S
VICKSBURG VKS  CLOUDY    45  45 100 NE7G18    30.13F FOG
$$

MSZ059>079-171300-
SOUTH MISSISSIPPI

CITY           SKY/WX    TMP DP  RH WIND       PRES   REMARKS
HATTIESBURG    CLOUDY    59  57  93 S10       30.09S
6HR MIN TEMP:  45; 6HR MAX TEMP:  59;

LAUREL         CLOUDY    54  49  83 S3        30.12R
MCCOMB         RAIN      60  58  92 SE12      30.02F FOG
6HR MIN TEMP:  52; 6HR MAX TEMP:  60; 6HR PCP:  0.25;

NATCHEZ        HVY RAIN  48  47  96 VRB7      30.12R
6HR MIN TEMP:  48; 6HR MAX TEMP:  58; 6HR PCP:  0.70;

PINE BELT      LGT RAIN  56  52  86 CALM      30.11R
6HR MIN TEMP:  44; 6HR MAX TEMP:  56; 6HR PCP: TRACE;

$$

MSZ080>082-171300-
COASTAL MISSISSIPPI

CITY           SKY/WX    TMP DP  RH WIND       PRES   REMARKS
BILOXI         CLOUDY    64  61  88 SE14      30.10S
6HR MIN TEMP:  55; 6HR MAX TEMP:  65;

PASCAGOULA     CLOUDY    66  60  81 SE13      30.12F
6HR MIN TEMP:  47; 6HR MAX TEMP:  66;

GULFPORT       CLOUDY    63  61  93 SE12      30.09F
6HR MIN TEMP:  55; 6HR MAX TEMP:  64;

$$

LAZ007>009-015>016-023>026-171300-
NORTHEAST LOUISIANA

CITY           SKY/WX    TMP DP  RH WIND       PRES   REMARKS
BASTROP        CLOUDY    44  43  97 NE3       30.09S
TALLULAH/VBURG RAIN      44  44 100 NE12      30.11F FOG
6HR MIN TEMP:  44; 6HR MAX TEMP:  56; 6HR PCP:  0.59;

VIDALIA        CLOUDY   N/A N/A N/A MISG      30.09R
$$



USA.gov is the U.S. government's official web portal to all federal, state and local government web resources and services.